This is the latest recevied weather packets stored in our database for station/object HOWARD. If no packets are shown the sender has not sent any weather packets the latest 10 day(s).
| Time | Temp. | Humidity | Pressure | Rain* | Wind** | Luminosity | Snow |
|---|---|---|---|---|---|---|---|
| 1777437699 | -1.11° C | 76% | 1013.4 hPa | 0 mm | - | - | - |
| 1777437099 | -1.11° C | 72% | 1013.4 hPa | 0 mm | - | - | - |
| 1777436499 | -1.11° C | 68% | 1013.3 hPa | 0 mm | - | - | - |
| 1777435899 | -0.56° C | 66% | 1013.1 hPa | 0 mm | - | - | - |
| 1777435299 | -0.56° C | 66% | 1013 hPa | 0 mm | - | - | - |
| 1777434699 | -0.56° C | 66% | 1013.2 hPa | 0 mm | - | - | - |
| 1777434099 | -0.56° C | 66% | 1013.1 hPa | 0 mm | - | - | - |
| 1777433499 | 0° C | 65% | 1013 hPa | 0 mm | - | - | - |
| 1777432931 | 0° C | 69% | 1013 hPa | 0 mm | - | - | - |
| 1777432899 | 0° C | 69% | 1013 hPa | 0 mm | - | - | - |
| 1777432299 | 0° C | 69% | 1012.9 hPa | 0 mm | - | - | - |
| 1777431699 | 0° C | 68% | 1012.8 hPa | 0 mm | - | - | - |
| 1777431099 | 0° C | 71% | 1012.7 hPa | 0 mm | - | - | - |
| 1777430499 | 0° C | 71% | 1012.8 hPa | 0 mm | - | - | - |
| 1777429899 | 0° C | 73% | 1012.8 hPa | 0 mm | - | - | - |
| 1777429299 | 0.56° C | 72% | 1012.8 hPa | 0 mm | - | - | - |
| 1777428699 | 0.56° C | 72% | 1012.8 hPa | 0 mm | - | - | - |
| 1777428099 | 0.56° C | 72% | 1012.7 hPa | 0 mm | - | - | - |
| 1777427499 | 1.11° C | 70% | 1012.7 hPa | 0 mm | - | - | - |
| 1777426899 | 1.11° C | 70% | 1012.7 hPa | 0 mm | - | - | - |
| 1777426299 | 1.11° C | 69% | 1012.7 hPa | 0 mm | - | - | - |
| 1777425698 | 1.67° C | 68% | 1012.8 hPa | 0 mm | - | - | - |
| 1777425099 | 1.67° C | 66% | 1012.8 hPa | 0 mm | - | - | - |
| 1777424498 | 1.67° C | 65% | 1012.9 hPa | 0 mm | - | - | - |
| 1777423899 | 2.22° C | 68% | 1012.8 hPa | 0 mm | - | - | - |
* Rain latest hour (hover to see other rain measurements)
** Current wind speed in m/s (hover to see current wind gust speed)